Moses Lake, WA

4:05 PM PDT on June 27, 2017 (GMT -0700)
Grant County International

Weather History for KMWH - November, 2012

Change the Weather History Date:

Saturday, November 24, 2012

  Actual Average Record
Temperature  
Mean Temperature 35 °F 34 °F  
Max Temperature 43 °F 41 °F 57 °F (2004)
Min Temperature 27 °F 27 °F -19 °F (2010)
Degree Days  
Heating Degree Days 30 31  
Month to date heating degree days 552 631  
Since 1 July heating degree days 1077 1268  
Cooling Degree Days 0 0  
Month to date cooling degree days 0 0  
Year to date cooling degree days 719 615  
Moisture  
Dew Point 32 °F    
Average Humidity 88    
Maximum Humidity 100    
Minimum Humidity 76    
Precipitation  
Precipitation 0.00 in 0.04 in 0.72 in (1983)
Month to date precipitation 1.05 0.93  
Year to date precipitation 7.65 7.40  
Sea Level Pressure  
Sea Level Pressure 30.15 in    
Wind  
Wind Speed 3 mph (NNW)    
Max Wind Speed 10 mph    
Max Gust Speed 13 mph    
Visibility 3 miles    
Events Fog    
T = Trace of Precipitation, MM = Missing Value Source: NWS Daily Summary

Daily Weather History Graph

Daily Weather History Graph

Search for Another Location

Airport or City:

Trip Planner

Search our weather history database for the weather conditions in past years. The results will help you decide how hot, cold, wet, or windy it might be!

Date:

Astronomy

Nov. 24, 2012 Rise Set
Actual Time 7:14 AM PST 4:13 PM PST
Civil Twilight 6:40 AM PST 4:47 PM PST
Nautical Twilight 6:02 AM PST 5:25 PM PST
Astronomical Twilight 5:26 AM PST 6:01 PM PST
Moon 2:10 PM PST (11/24) 3:25 AM PST (11/24)
Length of Visible Light 10h 06m
Length of Day
8h 58m
Waxing Gibbous, 88% of the Moon is Illuminated
Nov 24
Waxing Gibbous
Nov 28
Full
Dec 6
Last Quarter
Dec 13
New
Dec 19
First Quarter

Hourly Weather History & Observations

Time (PST) Temp. Windchill Dew Point Humidity Pressure Visibility Wind Dir Wind Speed Gust Speed Precip Events Conditions
12:52 AM 39.0 °F 34.0 °F 36.0 °F 89% 30.07 in 5.0 mi South 6.9 mph - N/A   Mostly Cloudy
1:52 AM 37.0 °F 32.4 °F 35.1 °F 93% 30.09 in 5.0 mi North 5.8 mph - N/A   Clear
2:13 AM 37.4 °F 33.8 °F 35.6 °F 93% 30.06 in 4.0 mi North 4.6 mph - N/A   Partly Cloudy
2:52 AM 37.0 °F 31.6 °F 35.1 °F 93% 30.10 in 4.0 mi NNW 6.9 mph - N/A   Partly Cloudy
3:52 AM 37.0 °F 33.3 °F 35.1 °F 93% 30.11 in 3.0 mi North 4.6 mph - N/A   Clear
4:05 AM 37.4 °F 32.1 °F 35.6 °F 93% 30.09 in 2.5 mi North 6.9 mph - N/A   Clear
4:15 AM 37.4 °F 32.1 °F 35.6 °F 93% 30.09 in 3.0 mi North 6.9 mph - N/A   Partly Cloudy
4:44 AM 35.6 °F 30.7 °F 33.8 °F 93% 30.10 in 2.5 mi North 5.8 mph - N/A   Mostly Cloudy
4:52 AM 37.0 °F 32.4 °F 34.0 °F 89% 30.13 in 2.0 mi North 5.8 mph - N/A   Mostly Cloudy
4:59 AM 37.4 °F 32.1 °F 35.6 °F 93% 30.10 in 0.8 mi North 6.9 mph - N/A   Mostly Cloudy
5:52 AM 37.0 °F 30.4 °F 35.1 °F 93% 30.15 in 0.5 mi North 9.2 mph - N/A Fog Fog
6:22 AM 37.4 °F 32.1 °F 35.6 °F 93% 30.13 in 0.2 mi NNE 6.9 mph - N/A Fog Fog
6:52 AM 36.0 °F 31.1 °F 35.1 °F 97% 30.16 in 0.2 mi NE 5.8 mph - N/A Fog Fog
7:23 AM 35.6 °F 30.7 °F 33.8 °F 93% 30.15 in 0.2 mi NE 5.8 mph - N/A Fog Fog
7:52 AM 36.0 °F 31.1 °F 35.1 °F 97% 30.19 in 0.2 mi ENE 5.8 mph - N/A Fog Fog
8:37 AM 33.8 °F 30.8 °F 32.0 °F 93% 30.18 in 0.2 mi West 3.5 mph - N/A Fog Fog
8:48 AM 35.6 °F - 33.8 °F 93% 30.19 in 1.0 mi Calm Calm - N/A   Mist
8:52 AM 35.1 °F 32.2 °F 33.1 °F 92% 30.22 in 3.0 mi West 3.5 mph - N/A   Mostly Cloudy
9:52 AM 37.9 °F - 36.0 °F 93% 30.23 in 9.0 mi Calm Calm - N/A   Clear
10:52 AM 39.9 °F - 35.1 °F 83% 30.21 in 10.0 mi Calm Calm - N/A   Clear
11:52 AM 41.0 °F - 36.0 °F 82% 30.20 in 10.0 mi Calm Calm - N/A   Clear
12:52 PM 42.1 °F 40.2 °F 36.0 °F 79% 30.19 in 10.0 mi South 3.5 mph - N/A   Partly Cloudy
1:52 PM 42.1 °F 40.2 °F 36.0 °F 79% 30.18 in 10.0 mi SSW 3.5 mph - N/A   Clear
2:52 PM 42.1 °F - 36.0 °F 79% 30.18 in 10.0 mi Calm Calm - N/A   Clear
3:52 PM 41.0 °F 39.0 °F 36.0 °F 82% 30.18 in 10.0 mi SW 3.5 mph - N/A   Clear
4:52 PM 39.0 °F 36.8 °F 36.0 °F 89% 30.18 in 9.0 mi WSW 3.5 mph - N/A   Mostly Cloudy
5:52 PM 34.0 °F - 32.0 °F 92% 30.18 in 7.0 mi Calm Calm - N/A   Clear
6:52 PM 35.1 °F 31.0 °F 32.0 °F 89% 30.18 in 4.0 mi West 4.6 mph - N/A   Clear
7:23 PM 33.8 °F 27.7 °F 30.2 °F 87% 30.14 in 2.5 mi West 6.9 mph - N/A   Partly Cloudy
7:38 PM 33.8 °F - 32.0 °F 93% 30.14 in 5.0 mi Calm Calm - N/A   Partly Cloudy
7:52 PM 33.1 °F 30.0 °F 30.9 °F 92% 30.17 in 4.0 mi NNE 3.5 mph - N/A   Clear
8:01 PM 30.2 °F 26.7 °F 28.4 °F 93% 30.14 in 2.5 mi NE 3.5 mph - N/A   Partly Cloudy
8:04 PM 30.2 °F - 28.4 °F 93% 30.14 in 1.0 mi Calm Calm - N/A   Mist
8:11 PM 30.2 °F - 28.4 °F 93% 30.14 in 0.5 mi Calm Calm - N/A Fog Light Freezing Fog
8:52 PM 30.0 °F - 28.0 °F 92% 30.18 in 0.5 mi Calm Calm - N/A Fog Light Freezing Fog
9:08 PM 30.2 °F - 28.4 °F 93% 30.14 in 0.5 mi Calm Calm - N/A Fog Light Freezing Fog
9:15 PM 28.4 °F - 26.6 °F 93% 30.14 in 0.2 mi Calm Calm - N/A Fog Light Freezing Fog
9:52 PM 28.0 °F - 26.1 °F 92% 30.18 in 0.2 mi Calm Calm - N/A Fog Light Freezing Fog
10:26 PM 28.4 °F - 24.8 °F 86% 30.14 in 0.5 mi Calm Calm - N/A Fog Light Freezing Fog
10:42 PM 28.4 °F - 24.8 °F 86% 30.15 in 0.2 mi Calm Calm - N/A Fog Light Freezing Fog
10:52 PM 27.0 °F 23.0 °F 25.0 °F 92% 30.19 in 0.2 mi NNE 3.5 mph - N/A Fog Light Freezing Fog
11:02 PM 28.4 °F 24.6 °F 24.8 °F 86% 30.15 in 0.8 mi North 3.5 mph - N/A   Mist
11:19 PM 26.6 °F - 24.8 °F 93% 30.15 in 0.2 mi Calm Calm - N/A Fog Light Freezing Fog
11:34 PM 26.6 °F - 24.8 °F 93% 30.16 in 0.5 mi Calm Calm - N/A Fog Light Freezing Fog
11:44 PM 26.6 °F - 26.6 °F 100% 30.16 in 0.5 mi Calm Calm - N/A Fog Light Freezing Fog
11:52 PM 27.0 °F - 26.1 °F 96% 30.19 in 0.5 mi Calm Calm - N/A Fog Light Freezing Fog